Simultaneous Nadir Overpasses (SNOs) Predictions

Prediction of SNOs over PacNW region [( 10.00, 139.50) to ( 22.70, 165.60)] between AQUA and NPP Satellites:

Table of predicted SNOs over PacNW region for the next 30.0 days since TLE Epoch: 1/19/2019
Index Date (AQUA) Time (AQUA) AQUA Lat,Lon Date (NPP) Time (NPP) NPP Lat,Lon Distance(km) Time Diff (sec)
1 01/22/2019 15:09:56 22.59, 159.86 01/22/2019 15:11:18 23.22, 157.15 285.49 82
2 01/25/2019 03:31:48 22.69, 147.52 01/25/2019 03:28:18 25.31, 145.01 387.79 210
3 01/30/2019 15:59:26 22.60, 147.49 01/30/2019 16:02:00 23.26, 144.48 317.05 154
4 02/07/2019 15:10:01 22.63, 159.86 02/07/2019 15:11:12 23.24, 157.17 283.59 71
5 02/10/2019 03:31:53 22.69, 147.52 02/10/2019 03:28:23 25.95, 144.86 452.40 210
6 02/15/2019 15:59:29 22.63, 147.50 02/15/2019 16:01:52 23.31, 144.51 315.36 143




NCC Satellite Simultaneous Nadir Overpasses (SNOs) Prediction Service
